Temp
56 49 46 52 55 56 50 50 51 52 53 50 51 52 57 61 57 57 58 60 62 64 67 64 62 61 60 60 60 61 61 61 61 60 59 60 58 56 53 52 53 55 57 58
48 44 56 60 58 54 50 49 48 49 53 49 49 50 56 59 59 60 59 59 61 61 58 59 58 58 58 57 58 59 59 59 59 60 59 60 56 54 52 52 52 53 53 53
46 51 57 56 51 51 51 48 47 46 49 50 46 44 51 57 61 61 62 61 62 62 58 56 56 56 56 55 55 57 57 57 57 60 59 57 56 54 52 51 49 51 52 52
48 52 52 49 49 52 45 52 51 47 43 37 45 34 47 53 53 55 56 58 56 59 59 58 56 54 54 53 53 54 54 54 56 57 58 56 55 53 51 50 50 49 50 49
41 45 46 46 50 53 47 52 49 47 41 37 39 34 44 50 50 51 53 54 54 53 54 55 55 54 51 51 50 50 51 52 54 55 57 55 52 51 51 50 48 48 47 47
43 49 49 48 51 53 52 47 47 44 40 26 39 37 39 43 49 51 53 53 53 51 51 52 51 51 48 48 48 49 50 50 52 53 54 53 51 50 48 48 46 46 45 44
41 42 45 49 43 46 46 40 26 22 21 25 38 36 41 46 48 51 50 51 50 48 48 47 46 46 46 46 47 49 49 48 50 50 50 50 49 49 47 46 45 44 42 41
30 25 41 47 44 40 43 42 31 25 25 28 33 29 40 47 48 49 49 49 49 49 49 48 48 47 46 48 47 48 47 47 47 47 46 47 48 46 44 44 43 42 40 40
33 32 43 47 47 48 41 35 43 31 24 25 31 39 46 46 47 46 46 47 46 47 48 48 48 48 47 47 47 47 46 46 46 45 45 44 44 44 42 42 42 40 41 43
44 29 43 43 45 47 43 47 30 29 18 19 30 32 36 41 44 46 45 45 46 47 47 47 47 48 47 47 47 47 46 44 44 44 43 43 42 42 42 42 40 40 40 40
46 39 36 41 39 39 39 37 40 38 30 25 24 31 43 45 46 46 47 49 48 47 47 47 48 48 47 46 45 45 44 43 42 43 42 41 41 42 41 40 39 39 39 39
45 40 32 35 41 43 45 41 41 28 28 28 28 29 47 48 47 48 49 50 48 48 48 48 48 47 46 45 45 44 44 43 43 43 42 41 41 41 39 39 38 38 37 38
44 34 27 32 36 41 38 43 43 42 36 31 26 32 47 46 45 48 47 48 48 49 48 48 47 46 45 45 44 44 44 43 43 42 41 40 39 38 38 37 37 37 36 36
48 39 34 28 33 38 35 40 42 41 26 33 34 35 40 45 46 48 47 49 48 49 50 48 47 47 47 46 45 45 45 43 42 41 39 37 36 37 37 36 36 35 35 34
45 29 35 37 39 40 38 39 40 38 40 33 38 40 46 48 49 50 50 50 49 50 49 49 48 48 48 48 47 47 45 43 41 39 38 36 35 37 36 34 33 33 33 33
45 31 36 27 35 35 34 39 41 41 42 41 42 40 50 53 51 51 51 51 50 50 50 51 51 51 50 50 47 47 44 41 40 38 36 37 34 34 32 32 32 32 31 31
40 32 27 22 31 32 26 32 36 40 45 44 37 46 51 49 51 51 50 51 51 51 51 51 51 50 49 48 47 45 44 40 38 35 34 34 33 32 31 31 30 30 29 30
38 32 32 26 24 19 33 39 44 42 44 47 48 48 50 51 52 53 54 52 52 52 52 52 51 50 47 46 45 44 40 36 35 34 33 33 32 31 30 30 29 29 29 28
44 34 28 22 25 30 34 35 37 36 39 48 47 50 51 52 47 48 54 53 53 52 52 51 50 49 47 45 42 39 34 34 33 33 32 31 30 29 29 29 28 27 28 28
41 41 29 29 19 17 33 37 41 44 30 45 48 48 48 46 40 47 51 51 52 52 50 48 46 45 44 41 37 36 34 33 32 31 31 30 30 29 27 27 26 26 27 28
32 33 30 25 18 28 38 38 41 26 34 38 43 45 44 43 47 45 45 44 46 45 44 42 37 41 38 34 34 34 31 33 30 29 28 27 27 27 27 26 25 26 25 27
32 31 30 29 22 22 37 36 36 41 37 39 38 39 41 41 40 41 43 41 40 39 38 38 37 32 29 32 33 32 31 29 27 26 25 24 24 27 27 25 24 25 24 23
31 34 29 33 31 37 38 36 40 39 40 36 37 36 40 40 39 40 41 40 40 39 34 28 31 29 27 28 30 31 27 25 23 23 21 20 23 25 26 25 24 24 23 23
35 31 30 32 32 35 37 38 37 38 38 36 36 37 38 39 40 39 39 38 38 31 29 26 24 25 29 25 24 22 25 23 22 21 19 20 22 21 22 25 25 24 24 24
32 35 28 27 30 30 36 36 37 37 38 37 35 36 38 39 36 37 38 37 34 30 26 22 24 23 22 21 19 20 22 21 20 19 19 20 21 23 23 24 25 25 27 27
28 30 34 30 36 35 39 38 36 37 37 36 37 35 33 34 34 33 31 28 28 27 24 24 21 21 21 19 22 23 21 21 20 19 19 21 22 22 23 24 25 31 31 32
MSLP
1012.77 1012.81 1012.51 1012.63 1012.75 1012.62 1013.27 1013.57 1013.85 1014.51 1015.39 1015.53 1015.55 1015.12 1014.65 1014.37 1014.48 1014.52 1014.57 1014.27 1014.17 1014.38 1015.04 1016.07 1017.13 1018.13 1018.87 1019.29 1019.62 1019.84 1019.94 1020.18 1020.31 1020.45 1020.68 1021.08 1021.80 1022.55 1023.21 1023.63 1023.70 1023.55 1023.51 1023.42
1013.61 1012.90 1012.46 1012.39 1012.60 1013.06 1013.55 1013.82 1014.26 1015.32 1015.76 1016.14 1015.80 1015.30 1014.63 1014.19 1013.94 1014.00 1014.22 1014.33 1014.45 1014.82 1015.92 1016.95 1017.91 1018.67 1019.45 1019.95 1020.15 1020.15 1020.34 1020.46 1020.55 1020.66 1020.89 1021.17 1021.94 1023.03 1023.54 1023.85 1024.03 1024.07 1024.16 1024.16
1013.15 1012.80 1012.55 1012.60 1012.86 1013.46 1013.93 1014.20 1014.70 1015.51 1016.25 1016.40 1016.27 1015.36 1014.12 1013.04 1013.23 1013.46 1013.65 1014.04 1014.44 1014.99 1016.07 1017.14 1018.10 1018.95 1019.57 1020.11 1020.40 1020.39 1020.53 1020.69 1020.85 1020.97 1021.22 1021.75 1022.25 1023.06 1023.56 1024.02 1024.43 1024.55 1024.52 1024.56
1013.87 1013.57 1013.24 1013.54 1013.74 1014.04 1014.43 1014.57 1015.17 1016.22 1016.87 1017.32 1016.88 1015.89 1013.93 1013.42 1013.51 1013.68 1013.92 1014.22 1014.66 1015.24 1015.83 1016.67 1017.74 1018.68 1019.57 1020.26 1020.48 1020.65 1020.80 1020.93 1021.08 1021.14 1021.37 1021.86 1022.34 1023.13 1023.80 1024.29 1024.58 1024.90 1024.99 1025.10
1014.65 1014.43 1014.24 1014.40 1014.22 1014.44 1015.01 1015.09 1016.18 1017.04 1017.77 1018.13 1017.72 1017.34 1014.53 1013.70 1013.93 1014.04 1014.43 1015.01 1015.47 1016.08 1016.48 1017.27 1017.89 1018.81 1019.78 1020.54 1021.09 1021.23 1021.31 1021.31 1021.37 1021.37 1021.38 1021.91 1022.72 1023.22 1023.75 1024.28 1024.74 1025.14 1025.33 1025.38
1015.31 1015.11 1014.99 1014.99 1015.00 1015.08 1015.65 1016.22 1017.42 1018.22 1018.83 1019.19 1017.88 1017.45 1015.22 1014.40 1013.90 1014.20 1014.95 1015.69 1016.30 1016.77 1017.35 1017.91 1018.64 1019.39 1020.27 1020.95 1021.43 1021.61 1021.62 1021.67 1021.71 1021.79 1021.83 1022.19 1022.92 1023.47 1024.07 1024.44 1024.90 1025.30 1025.67 1025.84
1016.02 1016.14 1016.14 1015.72 1016.02 1016.29 1016.35 1016.81 1018.80 1019.87 1020.14 1019.29 1018.16 1017.69 1015.42 1014.76 1014.60 1014.83 1015.55 1016.26 1016.93 1017.54 1018.06 1018.81 1019.44 1020.00 1020.70 1021.21 1021.60 1021.90 1021.95 1021.98 1022.02 1022.25 1022.46 1022.74 1023.21 1023.65 1024.17 1024.64 1025.07 1025.52 1025.92 1026.12
1015.47 1017.00 1016.54 1016.25 1016.06 1016.24 1016.76 1016.85 1017.75 1019.06 1020.02 1019.55 1018.99 1017.39 1015.31 1014.99 1015.23 1015.70 1016.13 1016.73 1017.30 1017.81 1018.31 1018.98 1019.56 1020.12 1020.73 1021.12 1021.47 1021.77 1022.01 1022.18 1022.45 1022.83 1023.12 1023.35 1023.65 1024.15 1024.69 1025.04 1025.37 1025.77 1026.08 1026.28
1014.57 1016.17 1016.47 1016.44 1016.32 1016.42 1016.95 1017.15 1017.71 1018.70 1019.91 1019.61 1018.17 1016.58 1015.28 1015.26 1015.71 1016.22 1016.78 1017.15 1017.60 1018.04 1018.46 1019.10 1019.57 1020.07 1020.65 1021.01 1021.40 1021.77 1022.12 1022.48 1022.88 1023.28 1023.59 1023.94 1024.22 1024.68 1025.21 1025.45 1025.70 1026.07 1026.26 1026.34
1013.55 1016.08 1016.79 1017.03 1016.81 1016.61 1016.47 1017.05 1018.00 1018.48 1019.79 1019.51 1017.51 1016.21 1015.22 1015.44 1015.77 1016.31 1016.91 1017.30 1017.51 1018.02 1018.56 1019.11 1019.57 1020.05 1020.51 1020.98 1021.50 1021.87 1022.31 1022.86 1023.23 1023.65 1023.94 1024.32 1024.71 1025.01 1025.36 1025.72 1026.08 1026.37 1026.47 1026.53
1013.25 1014.89 1017.12 1017.46 1016.80 1016.39 1016.82 1016.85 1017.14 1017.76 1018.59 1018.43 1017.70 1016.03 1014.37 1014.45 1015.07 1015.73 1016.37 1016.92 1017.39 1018.04 1018.52 1019.04 1019.48 1019.98 1020.44 1020.99 1021.54 1022.06 1022.60 1023.08 1023.55 1023.84 1024.16 1024.57 1024.93 1025.26 1025.50 1025.74 1026.07 1026.32 1026.48 1026.71
1013.28 1014.87 1016.60 1016.90 1016.74 1016.58 1016.25 1016.50 1017.03 1017.53 1018.15 1018.12 1017.47 1015.87 1014.54 1014.44 1014.84 1015.19 1015.93 1016.57 1017.25 1017.73 1018.24 1018.77 1019.21 1019.79 1020.46 1020.99 1021.49 1021.98 1022.54 1023.08 1023.46 1023.83 1024.25 1024.61 1025.00 1025.36 1025.66 1025.95 1026.18 1026.34 1026.71 1026.85
1013.48 1014.63 1016.27 1017.10 1017.23 1016.83 1016.62 1016.64 1016.80 1016.87 1017.13 1017.18 1017.01 1015.67 1014.75 1014.54 1014.81 1015.14 1015.66 1016.31 1016.91 1017.43 1018.05 1018.56 1019.06 1019.61 1020.20 1020.89 1021.38 1021.87 1022.40 1022.92 1023.33 1023.78 1024.25 1024.75 1025.14 1025.39 1025.61 1025.96 1026.29 1026.51 1026.85 1027.15
1013.39 1013.94 1014.56 1015.36 1015.28 1015.67 1016.46 1016.44 1016.50 1016.53 1016.72 1016.10 1015.30 1014.87 1014.69 1014.45 1014.54 1014.78 1015.29 1015.81 1016.53 1017.11 1017.62 1018.02 1018.61 1019.03 1019.65 1020.24 1020.86 1021.46 1022.02 1022.42 1022.92 1023.48 1024.04 1024.65 1025.01 1025.34 1025.71 1026.18 1026.53 1026.84 1027.05 1027.38
1013.65 1014.18 1014.77 1015.30 1015.49 1015.38 1015.37 1015.53 1015.84 1015.82 1015.66 1015.08 1014.49 1013.98 1013.56 1013.44 1013.61 1014.02 1014.69 1015.37 1016.10 1016.63 1017.07 1017.46 1018.00 1018.54 1019.05 1019.64 1020.17 1020.72 1021.31 1021.83 1022.44 1023.27 1023.96 1024.45 1024.95 1025.40 1025.68 1026.21 1026.69 1026.99 1027.22 1027.32
1013.91 1014.80 1015.27 1016.34 1016.22 1015.86 1015.68 1015.14 1014.87 1014.64 1014.63 1014.11 1013.92 1013.10 1012.53 1012.44 1012.75 1013.29 1014.07 1014.80 1015.42 1015.83 1016.29 1016.90 1017.50 1017.91 1018.36 1018.91 1019.55 1020.23 1020.91 1021.61 1022.32 1023.18 1023.67 1024.02 1024.57 1024.96 1025.42 1025.93 1026.40 1026.73 1027.00 1027.43
1014.32 1015.44 1016.50 1017.49 1017.14 1016.68 1015.88 1014.80 1014.57 1014.10 1013.46 1013.18 1012.68 1012.05 1012.23 1012.28 1012.34 1012.86 1013.44 1013.78 1014.55 1015.11 1015.50 1016.14 1016.72 1017.15 1017.72 1018.39 1018.95 1019.82 1020.47 1021.10 1021.87 1022.59 1023.19 1023.68 1024.38 1024.97 1025.35 1025.92 1026.41 1026.76 1027.09 1027.37
1014.18 1015.86 1017.08 1018.29 1018.24 1016.91 1014.30 1013.49 1012.92 1012.80 1012.21 1012.06 1011.76 1011.66 1011.56 1011.55 1011.77 1012.01 1012.36 1013.04 1013.77 1014.40 1015.07 1015.67 1016.15 1016.75 1017.52 1017.98 1018.68 1019.30 1020.10 1020.99 1021.80 1022.54 1023.10 1023.44 1024.01 1024.65 1025.22 1025.74 1026.21 1026.67 1027.06 1027.39
1014.19 1015.70 1017.34 1017.97 1017.85 1015.65 1014.05 1013.56 1013.04 1012.67 1011.73 1011.52 1011.24 1010.92 1011.08 1011.56 1011.89 1011.82 1011.84 1012.31 1012.97 1013.57 1014.39 1015.04 1015.59 1016.34 1017.17 1017.79 1018.33 1019.24 1020.29 1021.10 1021.74 1022.09 1022.54 1023.11 1023.71 1024.35 1024.96 1025.71 1026.23 1026.57 1027.06 1027.36
1014.57 1015.06 1016.52 1017.52 1017.02 1015.75 1013.62 1012.81 1012.48 1012.39 1011.96 1010.41 1010.38 1010.61 1011.01 1011.62 1012.15 1011.70 1012.05 1012.32 1012.79 1013.23 1013.93 1014.78 1015.57 1016.21 1017.05 1017.57 1018.39 1019.31 1020.20 1020.87 1021.28 1021.50 1021.87 1022.34 1023.09 1023.88 1024.61 1025.28 1025.82 1026.16 1026.59 1026.92
1014.82 1015.19 1015.93 1016.75 1016.15 1014.31 1012.75 1012.63 1012.74 1012.96 1011.68 1010.61 1010.56 1010.70 1011.05 1011.63 1011.72 1012.28 1012.37 1012.57 1012.93 1013.71 1014.50 1015.18 1015.83 1016.54 1016.80 1017.69 1018.54 1019.52 1020.08 1020.44 1020.42 1021.07 1021.61 1022.27 1022.89 1023.48 1024.11 1024.77 1025.35 1025.85 1026.31 1026.84
1013.69 1014.58 1015.03 1015.80 1015.74 1014.07 1012.35 1012.97 1012.54 1011.38 1010.97 1010.99 1011.22 1011.23 1011.46 1011.78 1012.41 1012.80 1013.13 1013.57 1014.12 1014.72 1015.32 1015.87 1016.95 1017.66 1017.53 1017.88 1018.59 1019.39 1019.92 1019.70 1020.24 1020.96 1021.75 1022.37 1022.85 1023.36 1023.99 1024.47 1025.10 1025.80 1026.32 1026.95
1013.52 1012.70 1013.56 1014.17 1013.57 1012.71 1012.33 1011.87 1011.50 1011.43 1011.46 1011.58 1011.71 1012.00 1012.10 1012.52 1013.08 1013.49 1014.01 1014.36 1014.79 1015.40 1016.05 1016.66 1017.23 1017.74 1017.63 1017.89 1018.33 1019.21 1019.15 1019.83 1020.57 1021.37 1021.96 1022.40 1022.72 1023.11 1023.67 1024.34 1025.03 1025.78 1026.03 1026.39
1013.37 1012.59 1012.94 1013.89 1013.07 1012.93 1012.71 1012.23 1011.90 1011.99 1012.14 1012.40 1012.48 1012.58 1012.67 1013.13 1013.61 1014.18 1014.69 1015.20 1015.67 1016.09 1016.74 1017.45 1018.05 1018.16 1018.00 1017.90 1018.50 1019.03 1019.32 1019.82 1020.61 1021.22 1021.77 1022.29 1022.75 1023.15 1023.42 1023.84 1024.35 1024.81 1025.27 1025.59
1013.09 1012.87 1013.08 1013.59 1013.72 1013.54 1013.06 1012.47 1012.24 1012.78 1012.86 1013.02 1013.29 1013.12 1013.26 1013.62 1014.28 1014.77 1015.27 1015.93 1016.36 1016.74 1017.23 1017.68 1018.01 1018.30 1018.70 1018.53 1018.93 1019.28 1019.42 1019.74 1020.38 1020.93 1021.49 1022.04 1022.46 1022.81 1023.07 1023.12 1023.41 1023.48 1023.83 1023.99
1012.89 1012.33 1012.76 1012.79 1012.70 1012.71 1012.87 1012.45 1012.46 1013.33 1013.53 1013.71 1014.08 1014.10 1014.31 1014.52 1015.07 1015.83 1016.32 1016.32 1016.90 1017.33 1017.65 1017.91 1018.53 1018.76 1018.43 1018.41 1018.59 1018.78 1018.94 1019.37 1020.02 1020.65 1021.15 1021.40 1021.78 1022.03 1022.28 1022.54 1022.75 1022.78 1023.03 1023.37
Wind_Speed
4 4 7 10 10 5 3 4 5 8 2 1 8 9 9 8 6 8 7 7 6 6 8 11 10 8 7 5 5 6 6 3 2 2 3 3 4 5 5 4 6 6 7 8
4 7 9 8 9 5 3 4 2 4 5 1 6 8 9 8 9 9 9 8 7 5 10 9 9 7 6 5 5 5 5 5 3 3 3 4 5 5 5 4 5 6 7 7
8 1 5 6 7 10 6 7 4 5 2 5 5 8 12 9 14 8 9 7 6 8 12 10 10 8 8 7 6 6 5 5 4 3 4 5 6 4 3 4 4 5 6 6
6 3 9 8 8 7 7 4 8 8 4 2 1 6 2 5 5 4 4 3 3 5 2 13 11 10 9 7 6 6 5 6 3 3 5 6 3 4 3 4 4 4 6 6
4 5 10 8 10 8 3 9 7 5 3 5 5 2 7 6 5 7 6 6 3 7 6 4 11 9 9 7 5 5 5 6 4 3 5 5 7 5 4 4 6 6 5 6
4 5 2 0 3 7 8 12 10 4 2 1 9 8 6 5 4 6 8 7 5 4 5 8 9 10 8 6 5 4 6 5 5 5 5 8 8 6 5 3 4 4 4 4
6 3 3 0 9 4 5 6 3 3 1 6 4 6 8 4 1 6 7 6 7 5 3 8 8 7 7 7 6 4 6 6 6 7 7 7 7 7 7 6 4 5 3 3
6 2 7 4 3 8 9 4 6 8 6 5 3 7 7 6 7 6 5 4 7 6 5 7 7 7 8 7 7 7 7 7 7 7 7 6 7 5 5 5 5 4 4 3
6 4 3 7 1 10 5 4 1 6 2 3 6 6 3 6 6 4 5 6 6 6 7 8 8 8 8 8 7 7 7 7 7 7 6 6 6 7 6 6 5 4 4 3
6 7 5 1 2 2 2 7 4 3 4 4 5 4 6 5 7 7 6 7 7 7 7 7 7 7 7 7 6 7 7 7 7 7 6 6 6 6 5 5 6 6 4 3
3 6 5 5 6 9 4 4 4 5 3 5 2 6 4 8 8 9 8 7 8 7 7 7 7 7 7 7 7 7 7 8 7 6 6 6 5 5 6 5 5 5 4 4
1 6 5 7 3 4 6 5 5 4 5 3 4 7 0 7 6 4 7 6 8 8 8 7 7 7 7 7 7 7 7 7 7 6 6 6 6 5 5 5 5 5 5 4
6 3 6 5 3 2 3 5 3 3 3 5 6 5 3 4 4 5 5 8 7 8 8 8 7 7 7 7 7 7 7 7 7 7 6 6 6 6 6 5 5 5 5 5
5 5 6 8 6 10 7 10 10 8 3 5 8 2 5 7 7 6 6 8 8 8 8 8 7 8 8 8 8 8 8 8 8 7 7 7 7 6 6 5 5 4 5 5
3 3 1 5 5 5 8 14 18 17 13 8 7 10 8 9 10 9 9 7 9 9 9 8 8 7 8 8 9 8 8 10 8 7 7 7 5 6 7 6 5 5 4 5
2 1 3 4 4 5 4 10 16 20 17 19 13 12 4 1 4 8 9 9 9 9 9 9 8 9 9 9 8 7 8 8 8 7 7 7 8 7 7 7 7 6 6 5
7 5 3 3 1 3 9 9 10 9 17 13 17 14 6 9 8 8 9 10 10 9 9 10 10 9 8 8 9 9 8 8 8 8 8 7 7 7 7 6 6 6 6 5
8 7 2 3 3 5 4 1 11 21 19 17 17 9 8 8 8 8 8 10 10 9 9 8 8 7 7 6 8 8 8 7 7 7 7 7 8 7 7 7 7 6 5 6
6 5 4 6 6 8 4 6 8 8 11 16 16 16 13 9 4 6 7 7 10 10 9 7 7 7 8 9 8 8 7 8 8 8 8 7 8 8 8 8 7 4 5 5
1 6 5 4 6 9 4 2 0 6 7 11 14 16 13 6 7 9 6 6 8 6 7 9 9 7 8 8 8 9 8 8 10 8 8 8 7 8 8 7 7 4 4 6
6 4 11 5 4 8 5 6 4 7 7 1 3 6 6 7 6 4 4 2 4 4 7 6 5 9 6 7 8 9 8 12 6 6 6 7 7 8 7 7 4 6 5 6
9 8 5 4 2 11 6 4 9 5 1 4 2 1 4 6 7 6 6 6 4 4 4 5 5 4 5 7 9 8 11 6 7 7 6 6 6 6 6 8 6 6 7 7
7 7 7 9 7 3 8 2 5 2 4 3 3 2 4 7 5 5 3 4 5 6 4 3 6 7 6 7 7 9 5 7 7 6 6 6 6 6 7 9 8 7 7 8
5 1 4 5 3 5 8 6 4 3 3 4 4 4 4 7 6 5 3 3 3 3 4 4 4 5 8 6 4 3 7 7 7 6 6 6 7 6 6 6 7 8 9 8
5 7 7 4 3 4 9 10 4 6 6 6 3 3 4 6 3 4 3 4 5 5 1 2 5 3 4 4 4 6 7 7 6 6 6 6 6 8 8 8 9 9 10 12
5 7 7 7 9 6 4 9 6 9 6 6 6 3 2 3 4 1 4 3 1 3 2 1 3 4 5 5 6 7 7 7 7 6 6 7 7 8 8 8 7 17 15 20
Wind_Direction
195 169 194 183 195 239 36 266 204 92 100 131 225 255 243 209 199 226 238 249 244 177 160 119 104 101 100 112 136 150 125 96 143 151 150 129 119 89 70 62 30 40 31 15
102 223 206 197 193 215 221 257 180 85 99 162 283 274 263 243 232 213 213 228 225 181 103 105 112 118 148 149 117 93 89 74 38 40 40 64 95 76 99 94 51 39 42 25
171 44 176 145 128 151 208 208 211 98 160 222 302 265 236 230 225 221 215 208 223 200 151 149 147 152 138 138 135 112 98 88 69 87 82 76 83 102 109 90 70 37 49 37
257 143 136 139 162 177 180 172 83 109 102 219 308 280 306 145 171 219 247 204 241 272 237 162 152 148 146 128 106 102 95 93 72 1 136 156 142 119 77 96 98 78 53 44
192 161 160 174 184 177 121 114 130 128 173 57 202 273 253 123 206 190 175 78 36 55 26 97 144 128 109 108 101 101 99 87 68 49 91 93 89 102 114 109 101 97 79 59
71 316 87 306 72 116 133 100 81 83 98 302 202 171 264 189 202 106 124 126 77 56 17 85 88 100 104 103 121 144 116 97 88 78 70 109 122 126 112 119 101 96 81 63
112 78 37 12 78 116 126 120 73 14 20 220 333 192 252 174 113 101 106 98 120 130 193 117 115 123 133 156 159 149 126 113 99 87 74 81 90 94 103 96 91 87 74 53
147 207 175 205 177 172 181 158 160 187 186 188 26 229 250 104 91 85 91 86 124 161 143 135 152 153 160 162 158 159 137 121 108 99 87 74 83 87 84 85 85 83 93 89
134 82 41 144 26 142 194 204 6 105 8 66 200 249 247 141 136 155 176 172 173 154 154 170 166 159 158 158 162 150 137 126 112 110 100 85 77 84 93 92 100 98 98 99
119 112 164 28 281 184 164 144 74 327 136 228 252 222 227 190 187 174 189 202 168 162 163 157 161 163 155 154 158 143 129 126 116 107 105 99 102 106 111 100 98 104 107 104
125 113 146 136 221 170 188 191 229 131 132 174 173 254 331 143 155 182 194 188 166 165 172 167 171 156 152 150 152 142 131 129 129 123 117 119 125 125 122 126 126 126 117 107
140 105 157 188 41 4 245 189 202 141 207 231 134 268 119 112 131 139 161 167 161 171 176 165 167 157 161 163 155 153 147 141 147 139 143 150 143 138 134 134 131 129 120 100
187 154 114 166 331 116 222 232 252 262 95 206 146 240 113 122 178 189 192 169 171 167 170 177 166 174 175 168 163 159 155 153 149 151 156 155 161 163 157 142 128 122 123 119
143 178 155 176 192 143 186 210 216 229 152 165 211 200 193 211 222 200 205 181 177 176 184 181 175 182 175 172 165 168 169 159 167 167 172 173 176 174 150 140 134 127 130 136
200 176 169 64 96 177 171 191 207 220 222 213 172 217 224 198 203 192 189 183 178 183 192 189 182 180 177 172 168 170 171 171 170 167 173 180 164 153 146 140 142 143 146 147
214 268 89 16 19 36 243 218 213 220 227 243 258 260 257 297 203 166 172 177 197 193 189 186 184 184 179 175 171 163 167 166 157 173 179 167 171 168 155 153 161 163 165 157
167 129 100 196 59 29 279 209 226 234 226 221 233 234 198 232 243 201 187 185 197 205 184 186 189 185 185 170 165 179 180 160 168 176 181 175 164 162 165 160 159 172 177 166
139 126 107 126 46 244 251 306 223 225 231 232 245 249 218 214 221 213 191 188 194 197 197 185 182 181 172 169 172 166 165 163 167 181 181 171 168 165 163 166 174 176 171 175
153 142 128 142 205 294 276 207 187 176 252 233 237 238 233 240 290 259 215 183 191 194 194 191 172 163 164 182 186 148 142 159 179 193 186 173 168 163 164 176 173 166 156 166
331 168 125 179 167 214 241 185 202 96 294 227 210 233 233 160 221 247 195 192 198 175 179 172 177 167 172 201 153 149 171 177 206 188 183 167 161 163 172 162 168 162 156 163
183 162 202 198 226 280 193 163 174 102 233 74 167 214 199 196 208 151 104 70 131 126 145 141 158 182 201 138 143 178 174 209 190 153 152 155 161 165 162 160 150 155 153 147
171 174 174 151 212 261 141 60 167 209 141 137 144 227 181 127 117 120 103 92 96 164 165 172 163 171 188 167 165 183 199 173 150 144 150 161 158 156 160 158 150 155 151 152
201 187 168 185 213 207 206 186 214 214 141 141 117 99 97 120 111 122 177 189 193 188 196 191 170 179 204 193 183 188 204 141 133 139 157 161 162 167 160 159 159 162 164 170
254 146 143 87 255 203 219 265 253 166 98 101 94 124 109 126 147 177 212 257 235 208 187 174 165 216 229 200 160 151 150 144 148 162 167 166 169 165 159 164 169 176 183 183
200 141 157 270 296 360 265 234 217 163 142 121 102 120 135 124 161 174 190 236 251 246 270 174 200 234 281 169 171 166 168 158 170 166 166 170 172 176 177 188 187 190 199 193
196 179 167 212 199 166 217 233 172 171 188 173 159 206 249 155 186 149 232 207 206 268 249 269 242 223 237 186 195 205 191 175 164 175 175 181 178 182 185 190 197 211 207 205